Вернуться в каталог

COSMOS 371

АктивенВоенныеLEO
NORAD 4578·PAYLOAD·🇷🇺 Russia

Запущен Oct 12, 1970 с Plesetsk Cosmodrome

Loading…

Ближайшие Пролёты (ближайшие 24 часа)

TLE

СвежийSource: Space-Track

Эпоха: Sep 14, 2026, 14:24 UTC

1  4578U 70083A   26257.60012580  .00000180  00000-0  47651-4 0  9992
2  4578  74.0002   3.8158 0003123 309.2386  50.8500 14.55863284958606

Отслеживайте COSMOS 371 в реальном времени с AllMySat

Download on the App Store